| time (UTC) | temp C | wind direction | speed KPH | gust KPH | rain 1hr cm | rain 24hr cm | rain mn cm | humidity % | barometer mb |
| 20260504042725 | 7 | 187 | 11.3 | 14.5 | 0.00 | 0.00 | 0.00 | 97 | 1008.4 |
| 20260504042221 | 7 | 189 | 14.5 | 22.5 | 0.00 | 0.00 | 0.00 | 97 | 1008.4 |
| 20260504041718 | 7 | 139 | 9.7 | 12.9 | 0.00 | 0.00 | 0.00 | 96 | 1008.4 |
| 20260504041214 | 8 | 172 | 6.4 | 9.7 | 0.00 | 0.00 | 0.00 | 94 | 1008.4 |
| 20260504040710 | 8 | 189 | 3.2 | 3.2 | 0.00 | 0.00 | 0.00 | 92 | 1008.5 |
| 20260504040208 | 8 | 270 | 6.4 | 9.7 | 0.00 | 0.00 | 0.00 | 90 | 1008.3 |
| 20260504035703 | 8 | 305 | 8.0 | 12.9 | 0.00 | 0.36 | 0.36 | 89 | 1008.3 |
| 20260504035201 | 8 | 275 | 8.0 | 12.9 | 0.00 | 0.36 | 0.36 | 90 | 1008.2 |
| 20260504034658 | 8 | 267 | 9.7 | 12.9 | 0.18 | 0.36 | 0.36 | 89 | 1008.4 |
| 20260504034155 | 8 | 260 | 6.4 | 24.1 | 0.18 | 0.33 | 0.33 | 91 | 1008.6 |
| 20260504033653 | 7 | 240 | 8.0 | 11.3 | 0.48 | 0.33 | 0.33 | 95 | 1008.7 |
| 20260504033150 | 7 | 207 | 4.8 | 12.9 | 0.61 | 0.30 | 0.30 | 95 | 1009.0 |
| 20260504032647 | 7 | 199 | 6.4 | 16.1 | 0.61 | 0.23 | 0.23 | 95 | 1009.3 |
| 20260504032144 | 7 | 220 | 12.9 | 17.7 | 0.61 | 0.18 | 0.18 | 95 | 1009.4 |
| 20260504031641 | 7 | 238 | 11.3 | 22.5 | 0.48 | 0.13 | 0.13 | 94 | 1009.3 |
| 20260504031137 | 7 | 205 | 14.5 | 24.1 | 0.30 | 0.08 | 0.08 | 92 | 1009.3 |
| 20260504030634 | 7 | 225 | 6.4 | 17.7 | 0.13 | 0.05 | 0.05 | 92 | 1009.2 |
| 20260504030131 | 7 | 196 | 3.2 | 11.3 | 0.00 | 0.03 | 0.03 | 92 | 1009.2 |
| 20260504025628 | 7 | 206 | 4.8 | 9.7 | 0.00 | 0.03 | 0.03 | 93 | 1009.0 |
| 20260504025124 | 7 | 261 | 6.4 | 11.3 | 0.00 | 0.03 | 0.03 | 94 | 1008.9 |
| 20260504024622 | 7 | 188 | 1.6 | 3.2 | 0.00 | 0.03 | 0.03 | 94 | 1009.0 |
| 20260504024118 | 7 | 226 | 3.2 | 3.2 | 0.00 | 0.03 | 0.03 | 94 | 1009.0 |
| 20260504023615 | 6 | 182 | 3.2 | 4.8 | 0.00 | 0.03 | 0.03 | 94 | 1009.1 |
| 20260504023111 | 6 | 201 | 3.2 | 6.4 | 0.00 | 0.03 | 0.03 | 94 | 1008.9 |
| 20260504022607 | 6 | 184 | 1.6 | 9.7 | 0.00 | 0.03 | 0.03 | 94 | 1009.2 |
| 20260504022103 | 6 | 187 | 8.0 | 12.9 | 0.00 | 0.03 | 0.03 | 94 | 1009.1 |
| 20260504021601 | 6 | 178 | 6.4 | 9.7 | 0.00 | 0.03 | 0.03 | 93 | 1008.9 |
| 20260504021058 | 6 | 161 | 4.8 | 12.9 | 0.00 | 0.03 | 0.03 | 93 | 1009.0 |
| 20260504020555 | 6 | 192 | 6.4 | 12.9 | 0.00 | 0.03 | 0.03 | 92 | 1009.0 |
| 20260504020051 | 6 | 181 | 8.0 | 12.9 | 0.18 | 0.03 | 0.03 | 91 | 1009.0 |
| 20260504015548 | 6 | 151 | 6.4 | 11.3 | 0.18 | 0.03 | 0.03 | 90 | 1009.3 |
| 20260504015043 | 6 | 164 | 11.3 | 12.9 | 0.00 | 0.00 | 0.00 | 86 | 1009.3 |
| 20260504014540 | 6 | 189 | 8.0 | 12.9 | 0.00 | 0.00 | 0.00 | 84 | 1009.2 |
| 20260504014037 | 6 | 157 | 9.7 | 11.3 | 0.00 | 0.00 | 0.00 | 82 | 1009.1 |
| 20260504013535 | 6 | 154 | 8.0 | 12.9 | 0.00 | 0.00 | 0.00 | 81 | 1009.2 |
| 20260504013032 | 6 | 165 | 9.7 | 12.9 | 0.00 | 0.00 | 0.00 | 80 | 1009.2 |
| 20260504012529 | 6 | 178 | 8.0 | 12.9 | 0.00 | 0.00 | 0.00 | 79 | 1008.9 |
| 20260504012027 | 6 | 152 | 4.8 | 11.3 | 0.00 | 0.00 | 0.00 | 79 | 1009.2 |
| 20260504011523 | 6 | 180 | 9.7 | 16.1 | 0.00 | 0.00 | 0.00 | 78 | 1009.3 |
| 20260504011019 | 6 | 138 | 8.0 | 14.5 | 0.00 | 0.00 | 0.00 | 76 | 1009.1 |
| 20260504010515 | 6 | 167 | 8.0 | 14.5 | 0.00 | 0.00 | 0.00 | 77 | 1009.1 |
| 20260504010011 | 7 | 138 | 9.7 | 14.5 | 0.00 | 0.00 | 0.00 | 70 | 1009.2 |
| 20260504005508 | 7 | 186 | 6.4 | 9.7 | 0.00 | 0.00 | 0.00 | 68 | 1009.1 |
| 20260504005006 | 7 | 167 | 9.7 | 14.5 | 0.00 | 0.00 | 0.00 | 67 | 1008.9 |
| 20260504004503 | 7 | 148 | 8.0 | 14.5 | 0.00 | 0.00 | 0.00 | 68 | 1009.2 |
| 20260504004000 | 7 | 128 | 8.0 | 14.5 | 0.00 | 0.00 | 0.00 | 67 | 1009.1 |
| 20260504003456 | 7 | 201 | 8.0 | 16.1 | 0.00 | 0.00 | 0.00 | 67 | 1009.1 |
| 20260504002953 | 7 | 176 | 12.9 | 14.5 | 0.00 | 0.00 | 0.00 | 66 | 1009.0 |
| 20260504002450 | 7 | 167 | 6.4 | 11.3 | 0.00 | 0.00 | 0.00 | 66 | 1009.0 |
| 20260504001948 | 7 | 162 | 8.0 | 14.5 | 0.00 | 0.00 | 0.00 | 66 | 1009.1 |
| 20260504001445 | 7 | 227 | 11.3 | 14.5 | 0.00 | 0.00 | 0.00 | 66 | 1009.1 |
| 20260504000942 | 7 | 170 | 8.0 | 16.1 | 0.00 | 0.00 | 0.00 | 66 | 1009.0 |
| 20260504000439 | 6 | 205 | 8.0 | 17.7 | 0.00 | 0.00 | 0.00 | 67 | 1008.9 |
| 20260503235936 | 6 | 170 | 12.9 | 16.1 | 0.00 | 0.00 | 0.00 | 68 | 1009.3 |
| 20260503235433 | 6 | 194 | 9.7 | 14.5 | 0.00 | 0.00 | 0.00 | 67 | 1009.1 |
| 20260503234931 | 6 | 175 | 9.7 | 12.9 | 0.00 | 0.00 | 0.00 | 67 | 1009.2 |
| 20260503234428 | 6 | 169 | 11.3 | 12.9 | 0.00 | 0.00 | 0.00 | 67 | 1009.0 |
| 20260503233926 | 6 | 164 | 11.3 | 16.1 | 0.00 | 0.00 | 0.00 | 66 | 1008.8 |
| 20260503233422 | 6 | 172 | 11.3 | 16.1 | 0.00 | 0.00 | 0.00 | 66 | 1008.9 |
| 20260503232919 | 6 | 183 | 9.7 | 12.9 | 0.00 | 0.00 | 0.00 | 68 | 1009.0 |
| 20260503232416 | 6 | 142 | 11.3 | 14.5 | 0.00 | 0.00 | 0.00 | 71 | 1009.1 |
| 20260503231914 | 6 | 142 | 11.3 | 14.5 | 0.00 | 0.00 | 0.00 | 72 | 1009.1 |
| 20260503231411 | 7 | 160 | 9.7 | 16.1 | 0.00 | 0.00 | 0.00 | 72 | 1009.0 |
| 20260503230907 | 7 | 163 | 6.4 | 6.4 | 0.00 | 0.00 | 0.00 | 68 | 1009.0 |
| 20260503230404 | 8 | 171 | 9.7 | 14.5 | 0.00 | 0.00 | 0.00 | 66 | 1009.0 |
| 20260503225901 | 8 | 174 | 6.4 | 11.3 | 0.00 | 0.00 | 0.00 | 63 | 1008.9 |
| 20260503225357 | 8 | 152 | 6.4 | 12.9 | 0.00 | 0.00 | 0.00 | 64 | 1009.0 |
| 20260503224854 | 10 | 150 | 6.4 | 9.7 | 0.00 | 0.00 | 0.00 | 48 | 1009.0 |
| 20260503224351 | 10 | 169 | 6.4 | 9.7 | 0.00 | 0.00 | 0.00 | 44 | 1008.9 |
| 20260503223849 | 10 | 177 | 6.4 | 6.4 | 0.00 | 0.00 | 0.00 | 43 | 1009.1 |
| 20260503223346 | 10 | 187 | 4.8 | 6.4 | 0.00 | 0.00 | 0.00 | 45 | 1009.1 |
| 20260503222841 | 10 | 199 | 3.2 | 6.4 | 0.00 | 0.00 | 0.00 | 45 | 1009.1 |
| 20260503222340 | 10 | 209 | 4.8 | 9.7 | 0.00 | 0.00 | 0.00 | 48 | 1009.3 |
| 20260503221838 | 10 | 172 | 3.2 | 6.4 | 0.00 | 0.00 | 0.00 | 49 | 1009.5 |
| 20260503221337 | 10 | 190 | 8.0 | 11.3 | 0.00 | 0.00 | 0.00 | 47 | 1009.6 |
| 20260503220832 | 11 | 199 | 11.3 | 16.1 | 0.00 | 0.00 | 0.00 | 44 | 1009.6 |
| 20260503220329 | 11 | 188 | 8.0 | 12.9 | 0.00 | 0.00 | 0.00 | 44 | 1009.7 |
| 20260503215826 | 11 | 191 | 4.8 | 12.9 | 0.00 | 0.00 | 0.00 | 40 | 1009.5 |
| 20260503215323 | 12 | 210 | 6.4 | 9.7 | 0.00 | 0.00 | 0.00 | 40 | 1009.4 |
| 20260503214821 | 12 | 178 | 6.4 | 17.7 | 0.00 | 0.00 | 0.00 | 40 | 1009.3 |
| 20260503214318 | 12 | 177 | 4.8 | 14.5 | 0.00 | 0.00 | 0.00 | 38 | 1009.3 |
| 20260503213815 | 12 | 250 | 8.0 | 14.5 | 0.00 | 0.00 | 0.00 | 38 | 1009.2 |
| 20260503213313 | 12 | 220 | 8.0 | 16.1 | 0.00 | 0.00 | 0.00 | 37 | 1009.3 |
| 20260503212809 | 13 | 223 | 3.2 | 20.9 | 0.00 | 0.00 | 0.00 | 38 | 1009.1 |
| 20260503212307 | 12 | 219 | 3.2 | 20.9 | 0.00 | 0.00 | 0.00 | 36 | 1009.3 |
| 20260503211805 | 12 | 190 | 3.2 | 12.9 | 0.00 | 0.00 | 0.00 | 38 | 1009.4 |
| 20260503211301 | 12 | 261 | 14.5 | 16.1 | 0.00 | 0.00 | 0.00 | 36 | 1009.3 |
| 20260503210800 | 12 | 223 | 4.8 | 24.1 | 0.00 | 0.00 | 0.00 | 37 | 1009.2 |
| 20260503210259 | 13 | 240 | 14.5 | 25.7 | 0.00 | 0.00 | 0.00 | 35 | 1009.4 |
| 20260503205754 | 13 | 279 | 9.7 | 12.9 | 0.00 | 0.00 | 0.00 | 35 | 1009.3 |
| 20260503205250 | 12 | 183 | 3.2 | 20.9 | 0.00 | 0.00 | 0.00 | 35 | 1009.5 |
| 20260503204747 | 12 | 276 | 16.1 | 20.9 | 0.00 | 0.00 | 0.00 | 34 | 1009.6 |
| 20260503204245 | 13 | 187 | 6.4 | 12.9 | 0.00 | 0.00 | 0.00 | 35 | 1009.6 |
| 20260503203742 | 13 | 249 | 16.1 | 22.5 | 0.00 | 0.00 | 0.00 | 33 | 1009.5 |
| 20260503203239 | 12 | 238 | 3.2 | 17.7 | 0.00 | 0.00 | 0.00 | 35 | 1009.6 |
| 20260503202736 | 12 | 210 | 9.7 | 17.7 | 0.00 | 0.00 | 0.00 | 33 | 1009.6 |
| 20260503202234 | 12 | 210 | 6.4 | 12.9 | 0.00 | 0.00 | 0.00 | 33 | 1009.7 |
| 20260503201732 | 13 | 268 | 4.8 | 17.7 | 0.00 | 0.00 | 0.00 | 32 | 1009.8 |
| 20260503201229 | 12 | 217 | 9.7 | 17.7 | 0.00 | 0.00 | 0.00 | 33 | 1009.6 |
| 20260503200725 | 13 | 214 | 9.7 | 14.5 | 0.00 | 0.00 | 0.00 | 35 | 1009.9 |
| 20260503200222 | 13 | 221 | 8.0 | 12.9 | 0.00 | 0.00 | 0.00 | 32 | 1010.1 |
| 20260503195718 | 12 | 258 | 6.4 | 14.5 | 0.00 | 0.00 | 0.00 | 34 | 1010.2 |
| 20260503195216 | 12 | 225 | 6.4 | 24.1 | 0.00 | 0.00 | 0.00 | 33 | 1010.2 |
| 20260503194713 | 13 | 251 | 11.3 | 22.5 | 0.00 | 0.00 | 0.00 | 34 | 1010.0 |
| 20260503194209 | 12 | 208 | 9.7 | 24.1 | 0.00 | 0.00 | 0.00 | 33 | 1010.3 |
| 20260503193705 | 12 | 233 | 6.4 | 27.4 | 0.00 | 0.00 | 0.00 | 34 | 1010.5 |
| 20260503193201 | 11 | 198 | 4.8 | 22.5 | 0.00 | 0.00 | 0.00 | 38 | 1010.5 |
| 20260503192657 | 11 | 218 | 14.5 | 24.1 | 0.00 | 0.00 | 0.00 | 37 | 1010.6 |
| 20260503192152 | 12 | 249 | 12.9 | 17.7 | 0.00 | 0.00 | 0.00 | 34 | 1010.6 |
| 20260503191649 | 12 | 201 | 9.7 | 14.5 | 0.00 | 0.00 | 0.00 | 36 | 1010.8 |
| 20260503191146 | 11 | 189 | 4.8 | 16.1 | 0.00 | 0.00 | 0.00 | 40 | 1010.8 |
| 20260503190643 | 12 | 225 | 9.7 | 12.9 | 0.00 | 0.00 | 0.00 | 39 | 1010.9 |
| 20260503190140 | 12 | 291 | 11.3 | 27.4 | 0.00 | 0.00 | 0.00 | 41 | 1011.0 |
| 20260503185637 | 12 | 238 | 9.7 | 24.1 | 0.00 | 0.00 | 0.00 | 40 | 1010.9 |
| 20260503185132 | 12 | 279 | 20.9 | 27.4 | 0.00 | 0.00 | 0.00 | 39 | 1010.9 |
| 20260503184627 | 12 | 295 | 11.3 | 24.1 | 0.00 | 0.00 | 0.00 | 41 | 1010.9 |
| 20260503184124 | 12 | 174 | 8.0 | 20.9 | 0.00 | 0.00 | 0.00 | 42 | 1010.9 |
| 20260503183620 | 12 | 213 | 11.3 | 17.7 | 0.00 | 0.00 | 0.00 | 46 | 1011.1 |
| 20260503183118 | 12 | 284 | 14.5 | 22.5 | 0.00 | 0.00 | 0.00 | 44 | 1011.0 |
| 20260503182616 | 12 | 237 | 9.7 | 14.5 | 0.00 | 0.00 | 0.00 | 44 | 1011.1 |
| 20260503182114 | 12 | 228 | 19.3 | 25.7 | 0.00 | 0.00 | 0.00 | 44 | 1011.0 |
| 20260503181610 | 12 | 259 | 3.2 | 24.1 | 0.00 | 0.00 | 0.00 | 45 | 1011.2 |
| 20260503181107 | 12 | 254 | 12.9 | 27.4 | 0.00 | 0.00 | 0.00 | 46 | 1011.1 |
| 20260503180604 | 12 | 216 | 11.3 | 20.9 | 0.00 | 0.00 | 0.00 | 46 | 1011.3 |
| 20260503175559 | 11 | 210 | 8.0 | 22.5 | 0.00 | 0.00 | 0.00 | 44 | 1011.2 |
| 20260503175056 | 11 | 183 | 3.2 | 25.7 | 0.00 | 0.00 | 0.00 | 46 | 1011.3 |
| 20260503174553 | 11 | 267 | 11.3 | 24.1 | 0.00 | 0.00 | 0.00 | 44 | 1011.5 |
| 20260503174049 | 11 | 258 | 9.7 | 22.5 | 0.00 | 0.00 | 0.00 | 42 | 1011.7 |
| 20260503173544 | 11 | 204 | 16.1 | 24.1 | 0.00 | 0.00 | 0.00 | 43 | 1011.7 |
| 20260503173041 | 12 | 201 | 19.3 | 24.1 | 0.00 | 0.00 | 0.00 | 40 | 1011.7 |
| 20260503172539 | 12 | 179 | 3.2 | 22.5 | 0.00 | 0.00 | 0.00 | 44 | 1011.9 |
| 20260503172035 | 11 | 232 | 4.8 | 9.7 | 0.00 | 0.00 | 0.00 | 42 | 1011.7 |
| 20260503171532 | 11 | 185 | 9.7 | 24.1 | 0.00 | 0.00 | 0.00 | 42 | 1011.8 |
| 20260503171030 | 11 | 272 | 16.1 | 22.5 | 0.00 | 0.00 | 0.00 | 41 | 1011.8 |
| 20260503170526 | 11 | 201 | 9.7 | 22.5 | 0.00 | 0.00 | 0.00 | 42 | 1011.8 |
| 20260503150918 | 10 | 225 | 9.7 | 17.7 | 0.00 | 0.00 | 0.00 | 35 | 1013.3 |
| 20260503150415 | 10 | 190 | 1.6 | 6.4 | 0.00 | 0.00 | 0.00 | 39 | 1013.3 |
| 20260503131308 | 6 | 267 | 6.4 | 17.7 | 0.00 | 0.00 | 0.00 | 53 | 1013.9 |
| 20260503130805 | 5 | 331 | 6.4 | 17.7 | 0.00 | 0.00 | 0.00 | 54 | 1013.9 |
| 20260503130302 | 6 | 272 | 6.4 | 12.9 | 0.00 | 0.00 | 0.00 | 54 | 1014.0 |
| 20260503110656 | 2 | 248 | 4.8 | 11.3 | 0.00 | 0.00 | 0.00 | 65 | 1013.7 |
| 20260503110153 | 2 | 290 | 6.4 | 9.7 | 0.00 | 0.00 | 0.00 | 66 | 1013.8 |
| 20260503100120 | 2 | 174 | 3.2 | 6.4 | 0.00 | 0.00 | 0.00 | 72 | 1013.5 |
| 20260503081509 | 3 | 267 | 8.0 | 12.9 | 0.00 | 0.00 | 0.00 | 70 | 1013.8 |
| 20260503081007 | 3 | 250 | 11.3 | 17.7 | 0.00 | 0.00 | 0.00 | 69 | 1013.7 |
| 20260503080503 | 3 | 261 | 8.0 | 14.5 | 0.00 | 0.00 | 0.00 | 67 | 1013.6 |
| 20260503072939 | 3 | 243 | 12.9 | 17.7 | 0.00 | 0.00 | 0.00 | 67 | 1013.6 |
| 20260503072437 | 3 | 299 | 9.7 | 16.1 | 0.00 | 0.00 | 0.00 | 68 | 1013.6 |
| 20260503071933 | 3 | 277 | 14.5 | 17.7 | 0.00 | 0.00 | 0.00 | 67 | 1013.8 |
| 20260503071430 | 3 | 322 | 8.0 | 16.1 | 0.00 | 0.00 | 0.00 | 67 | 1013.8 |
| 20260503070926 | 3 | 285 | 6.4 | 11.3 | 0.00 | 0.00 | 0.00 | 68 | 1013.8 |
| 20260503070424 | 3 | 278 | 6.4 | 14.5 | 0.00 | 0.00 | 0.00 | 66 | 1013.8 |
| 20260503054837 | 4 | 230 | 9.7 | 16.1 | 0.00 | 0.00 | 0.00 | 68 | 1013.8 |
| 20260503054333 | 5 | 310 | 4.8 | 16.1 | 0.00 | 0.00 | 0.00 | 67 | 1013.7 |
| 20260503053831 | 5 | 198 | 9.7 | 12.9 | 0.00 | 0.00 | 0.00 | 67 | 1013.7 |
| 20260503053329 | 5 | 282 | 6.4 | 9.7 | 0.00 | 0.00 | 0.00 | 67 | 1013.9 |
| 20260503052825 | 5 | 191 | 4.8 | 9.7 | 0.00 | 0.00 | 0.00 | 67 | 1013.8 |
| 20260503052322 | 5 | 277 | 6.4 | 11.3 | 0.00 | 0.00 | 0.00 | 67 | 1014.0 |
| 20260503051818 | 5 | 246 | 4.8 | 6.4 | 0.00 | 0.00 | 0.00 | 68 | 1014.1 |
| 20260503051315 | 5 | 274 | 4.8 | 14.5 | 0.00 | 0.00 | 0.00 | 67 | 1014.1 |
| 20260503050812 | 5 | 261 | 4.8 | 11.3 | 0.00 | 0.00 | 0.00 | 67 | 1014.2 |
| 20260503050308 | 5 | 246 | 8.0 | 17.7 | 0.00 | 0.00 | 0.00 | 67 | 1014.2 |
| 20260503045806 | 5 | 282 | 9.7 | 14.5 | 0.00 | 0.00 | 0.00 | 67 | 1014.2 |
| 20260503045305 | 5 | 290 | 8.0 | 12.9 | 0.00 | 0.00 | 0.00 | 67 | 1014.1 |
| 20260503044759 | 5 | 314 | 4.8 | 9.7 | 0.00 | 0.00 | 0.00 | 67 | 1014.0 |
| 20260503044256 | 5 | 224 | 6.4 | 14.5 | 0.00 | 0.00 | 0.00 | 66 | 1014.1 |
| 20260503043754 | 5 | 272 | 8.0 | 12.9 | 0.00 | 0.00 | 0.00 | 67 | 1014.3 |
| 20260503043251 | 5 | 272 | 6.4 | 11.3 | 0.00 | 0.00 | 0.00 | 67 | 1014.2 |